Location: Heidgraben
(53.7081°N, 9.6576°E)
Time: 08:30:13
(UTC+00:00)

Cosmos 1328 Rocket - Pass Details

Date: 05 July 2020
Orbit: 602 x 627 km, 82.5° (Epoch: 14 August)

Event Time Altitude Azimuth Distance (km) Brightness Sun altitude
Rises 22:41:00 0° 349° (N) 2,872 9.1 -13.0°
Reaches altitude 10° 22:43:14 10° 350° (N) 1,962 7.6 -13.1°
Maximum altitude 22:47:35 81° 79° (E) 618 3.5 -13.2°
Enters shadow 22:50:26 21° 165° (SSE) 1,371 4.7 -13.2°
